This demonstration page uses our WeatherBlox Daily Observations layout. Learn more.

Left ArrowRight Arrow

44.89941, -97.11507

Hourly Observations for April 18, 2019

Temp ( °F °C ) Dew Point ( °F °C ) Humidity (%) Winds ( mph kmh ) Pressure ( in mb ) Visibility ( mi km ) Precip ( " mm )
12:18 am 00:18 Cloudy with Mist and Fog 39 3.9 38 3.3 96 96 NW 6 9 29.86 1011 2 3 0.00 0.00
12:23 am 00:23 Cloudy with Mist and Fog 39 3.9 38 3.3 96 96 NW 6 9 29.86 1011 1 1 0.00 0.00
12:35 am 00:35 Cloudy with Mist and Fog 39 3.9 38 3.3 96 96 WNW 6 9 29.86 1011 1 2 0.00 0.00
12:48 am 00:48 Cloudy with Mist and Fog 39 4 37 3 93 93 NW 7 11 29.86 1011 2 2 0.00 0.00
12:53 am 00:53 Cloudy with Mist and Fog 39 3.9 38 3.3 96 96 NW 7 11 29.85 1011 2 2 0.00 0.00
1:09 am 01:09 Cloudy with Mist and Fog 39 3.9 38 3.3 96 96 NW 5 7 29.86 1011 2 3 0.00 0.00
1:26 am 01:26 Cloudy with Mist and Fog 38 3.3 38 3.3 100 100 NW 6 9 29.87 1011 3 5 0.00 0.00
1:53 am 01:53 Cloudy with Mist and Fog 39 3.9 38 3.3 96 96 NW 6 9 29.84 1011 6 10 0.00 0.00
2:06 am 02:06 Cloudy with Mist and Fog 39 3.9 38 3.3 96 96 NW 7 11 29.86 1011 6 10 0.00 0.00
2:16 am 02:16 Cloudy with Mist and Fog 39 3.9 38 3.3 96 96 NW 9 15 29.85 1011 6 10 0.00 0.00
2:38 am 02:38 Cloudy 39 3.9 38 3.3 96 96 WNW 6 9 29.86 1011 7 11 0.00 0.00
2:53 am 02:53 Cloudy with Mist and Fog 38 3.3 38 3.3 100 100 NW 6 9 29.84 1010 6 10 0.00 0.00
3:53 am 03:53 Cloudy with Mist and Fog 38 3.3 38 3.3 100 100 NW 6 9 29.83 1010 3 5 0.00 0.00
4:02 am 04:02 Cloudy with Mist and Fog 39 3.9 38 3.3 96 96 WNW 6 9 29.85 1011 3 4 0.00 0.00
4:17 am 04:17 Cloudy with Mist and Fog 39 3.9 38 3.3 96 96 NW 7 11 29.86 1011 1 2 0.00 0.03
4:24 am 04:24 Cloudy with Mist and Fog 38 3.3 38 3.3 100 100 NW 6 9 29.87 1011 1 1 0.00 0.03
4:38 am 04:38 Cloudy with Mist and Fog 38 3.3 38 3.3 100 100 WNW 5 7 29.87 1011 1 2 0.00 0.03
4:48 am 04:48 Cloudy with Mist and Fog 39 4 37 3 93 93 WNW 5 7 29.86 1011 2 3 0.00 0.03
4:49 am 04:49 Cloudy with Mist and Fog 39 3.9 38 3.3 96 96 WNW 3 6 29.84 1011 2 3 0.00 0.03
4:58 am 04:58 Cloudy with Mist and Fog 39 3.9 38 3.3 96 96 Calm 29.87 1012 3 5 0.00 0.00
5:02 am 05:02 Cloudy with Mist and Fog 39 3.9 38 3.3 96 96 Calm 29.87 1012 2 3 0.00 0.00
5:10 am 05:10 Cloudy with Mist and Fog 38 3.3 38 3.3 100 100 Calm 29.88 1012 1 1 0.00 0.00
5:19 am 05:19 Cloudy with Mist and Fog 38 3.3 37 2.8 97 97 NW 3 6 29.88 1012 1 2 0.00 0.00
5:29 am 05:29 Cloudy with Light Rain 39 3.9 37 2.8 93 93 NW 5 7 29.87 1012 1 1 0.00 0.03
5:53 am 05:53 Mostly Cloudy with Fog 39 3.9 38 3.3 96 96 WNW 6 9 29.86 1011 1 1 0.00 0.03
6:09 am 06:09 Mostly Cloudy with Fog 39 3.9 38 3.3 96 96 WNW 7 11 29.88 1012 1 1 0.00 0.00
6:16 am 06:16 Mostly Cloudy with Light Rain 39 3.9 38 3.3 96 96 WNW 6 9 29.88 1012 1 2 0.00 0.03
6:27 am 06:27 Cloudy with Light Rain 39 3.9 38 3.3 96 96 WNW 6 9 29.88 1012 2 3 0.01 0.25
6:44 am 06:44 Cloudy with Light Rain 39 3.9 38 3.3 96 96 WNW 8 13 29.88 1012 3 5 0.02 0.51
6:53 am 06:53 Cloudy with Light Rain 39 3.9 38 3.3 96 96 WNW 7 11 29.87 1011 3 5 0.02 0.51
7:01 am 07:01 Cloudy with Light Rain 39 3.9 38 3.3 96 96 WNW 8 13 29.89 1012 3 4 0.00 0.03
7:10 am 07:10 Cloudy with Mist and Fog 39 3.9 38 3.3 96 96 NW 6 9 29.88 1012 2 3 0.00 0.03
7:20 am 07:20 Cloudy with Mist and Fog 39 3.9 38 3.3 96 96 NW 7 11 29.89 1012 1 2 0.00 0.03
7:34 am 07:34 Cloudy with Mist and Fog 39 3.9 39 3.9 100 100 NW 7 11 29.89 1012 2 3 0.00 0.03
7:51 am 07:51 Cloudy with Mist and Fog 39 4 39 4 100 100 NW 7 11 29.89 1012 3 5 0.00 0.03
7:53 am 07:53 Cloudy with Mist and Fog 39 3.9 39 3.9 100 100 NW 7 11 29.88 1012 3 5 0.00 0.03
8:02 am 08:02 Cloudy with Mist and Fog 39 3.9 39 3.9 100 100 NNW 7 11 29.90 1013 2 3 0.00 0.00
8:09 am 08:09 Cloudy with Mist and Fog 39 3.9 39 3.9 100 100 N 8 13 29.90 1013 2 2 0.00 0.00
8:16 am 08:16 Cloudy with Mist and Fog 39 3.9 38 3.3 96 96 N 6 9 29.90 1013 1 2 0.00 0.00
8:39 am 08:39 Cloudy with Mist and Fog 39 3.9 38 3.3 96 96 NNW 7 11 29.91 1013 2 3 0.01 0.25
8:53 am 08:53 Cloudy with Mist and Fog 39 3.9 38 3.3 96 96 NNW 9 15 29.90 1013 3 4 0.01 0.25
9:00 am 09:00 Cloudy with Mist and Fog 39 3.9 38 3.3 96 96 NNW 9 15 29.91 1013 4 6 0.00 0.00
9:53 am 09:53 Cloudy with Mist and Fog 39 3.9 38 3.3 96 96 N 10 17 29.92 1013 6 10 0.00 0.00
9:59 am 09:59 Cloudy with Mist and Fog 39 3.9 38 3.3 96 96 N 8 13 29.94 1014 3 4 0.00 0.00
10:03 am 10:03 Cloudy with Mist and Fog 40 4.4 39 3.9 97 97 N 10 17 29.94 1014 2 3 0.00 0.00
10:14 am 10:14 Cloudy with Mist and Fog 39 3.9 38 3.3 96 96 N 9 15 29.95 1014 2 2 0.00 0.00
10:25 am 10:25 Cloudy with Mist and Fog 40 4.4 38 3.3 93 93 N 12 19 29.95 1014 3 5 0.00 0.00
10:53 am 10:53 Cloudy 40 4.4 39 3.9 97 97 N 15 24 29.95 1014 10 16 0.00 0.00
11:35 am 11:35 Cloudy 43 6.1 39 3.9 86 86 NE 15 24 29.98 1015 10 16 0.00 0.00
11:53 am 11:53 Cloudy 43 6.1 39 3.9 86 86 N 13 20 29.98 1015 10 16 0.00 0.00
12:06 pm 12:06 Cloudy 43 6.1 39 3.9 86 86 N 12 19 29.99 1015 10 16 0.00 0.00
12:22 pm 12:22 Cloudy 43 6.1 39 3.9 86 86 N 13 20 30.00 1016 10 16 0.00 0.00
12:29 pm 12:29 Cloudy 44 6.7 40 4.4 85 85 N 12 19 29.99 1016 10 16 0.00 0.00
12:39 pm 12:39 Cloudy 45 7.2 40 4.4 83 83 N 12 19 29.99 1016 10 16 0.00 0.00
12:53 pm 12:53 Cloudy 47 8.3 40 4.4 77 77 N 13 20 29.99 1016 10 16 0.00 0.00
1:11 pm 13:11 Mostly Cloudy 49 9.4 41 5 74 74 N 12 19 29.97 1015 10 16 0.00 0.00
1:53 pm 13:53 Mostly Cloudy 50 10 40 4.4 68 68 NNW 10 17 29.98 1015 10 16 0.00 0.00
2:16 pm 14:16 Mostly Cloudy 52 11.1 39 3.9 61 61 N 15 24 29.95 1014 10 16 0.00 0.00
2:53 pm 14:53 Mostly Sunny 54 12.2 38 3.3 55 55 NNW 15 24 29.98 1015 10 16 0.00 0.00
3:53 pm 15:53 Mostly Sunny 55 12.8 36 2.2 49 49 NNW 18 30 29.97 1015 10 16 0.00 0.00
4:53 pm 16:53 Partly Cloudy 53 11.7 36 2.2 52 52 NNW 18 30 29.98 1015 10 16 0.00 0.00
5:53 pm 17:53 Mostly Sunny 53 11.7 36 2.2 52 52 N 17 28 29.99 1016 10 16 0.00 0.00
6:53 pm 18:53 Sunny 51 10.6 35 1.7 54 54 N 17 28 30.02 1017 10 16 0.00 0.00
7:53 pm 19:53 Sunny 47 8.3 35 1.7 63 63 NNE 10 17 30.04 1017 10 16 0.00 0.00
8:53 pm 20:53 Clear 39 3.9 32 0 76 76 N 6 9 30.06 1018 10 16 0.00 0.00
9:53 pm 21:53 Clear 39 3.9 33 0.6 79 79 NNW 6 9 30.10 1019 10 16 0.00 0.00
10:53 pm 22:53 Clear 38 3.3 33 0.6 83 83 NW 7 11 30.11 1020 10 16 0.00 0.00
11:53 pm 23:53 Clear 34 1.1 30 -1.1 85 85 NNW 5 7 30.11 1020 10 16 0.00 0.00

Powered by AerisWeather